User: anonymous   Login
Location: Unspecified
(0.0000°N, 0.0000°E)
Time: 20:06:45
(UTC+02:00)
Language:

YAOGAN 3 - Orbit

View from above orbital plane
View from above orbital plane
View from above satellite
View from above satellite

Ground track
Ground track

The orbit data is extracted from the following two-line orbital elements,

1 32289U 07055A   15148.18424656  .00000179  00000-0  30284-4 0  9994
2 32289 097.9633 142.5979 0001402 106.6428 253.4932 14.80458672407604
Epoch (UTC): 28 May 2015 04:25:18
Eccentricity: 0.0001402
inclination: 97.9633°
perigee height: 627 km
apogee height: 629 km
right ascension of ascending node: 142.5979°
argument of perigee: 106.6428°
revolutions per day: 14.80458672
mean anomaly at epoch: 253.4932°
orbit number at epoch: 40760

The dashed part of the orbit path shows where the satellite is in the earth's shadow,  

DLR